Akron, CO

9:14 AM MST on January 23, 2018 (GMT -0700)
Akron-Washington County

Weather History for KAKO - May, 2009

Change the Weather History Date:

Tuesday, May 12, 2009

  Actual Average Record
Temperature  
Mean Temperature 63 °F 56 °F  
Max Temperature 84 °F 69 °F 93 °F (1962)
Min Temperature 44 °F 42 °F 22 °F (1953)
Degree Days  
Heating Degree Days 2    
Month to date heating degree days  
Cooling Degree Days 0    
Month to date cooling degree days  
Growing Degree Days 13 (Base 50)    
Moisture  
Dew Point 42 °F    
Average Humidity 56    
Maximum Humidity 100    
Minimum Humidity 15    
Precipitation  
Precipitation 0.00 in 0.09 in 2.15 in (1975)
Month to date precipitation 1.01  
Year to date precipitation 4.27  
Sea Level Pressure  
Sea Level Pressure 29.61 in    
Wind  
Wind Speed 9 mph (SSW)    
Max Wind Speed 22 mph    
Max Gust Speed 26 mph    
Visibility 9 miles    
Events      
T = Trace of Precipitation, MM = Missing Value Source: NWS Daily Summary

Daily Weather History Graph

Daily Weather History Graph

Search for Another Location

Airport or City:

Trip Planner

Search our weather history database for the weather conditions in past years. The results will help you decide how hot, cold, wet, or windy it might be!

Date:

Astronomy

May. 12, 2009 Rise Set
Actual Time 5:39 AM MDT 7:59 PM MDT
Civil Twilight 5:09 AM MDT 8:29 PM MDT
Nautical Twilight 4:31 AM MDT 9:07 PM MDT
Astronomical Twilight 3:50 AM MDT 9:49 PM MDT
Moon 11:39 PM MDT (5/12) 7:54 AM MDT (5/12)
Length of Visible Light 15h 20m
Length of Day
14h 19m
Waning Gibbous, 88% of the Moon is Illuminated
May 12
Waning Gibbous
May 17
Last Quarter
May 24
New
May 30
First Quarter
Jun 7
Full

Hourly Weather History & Observations

Time (MDT) Temp. Windchill Dew Point Humidity Pressure Visibility Wind Dir Wind Speed Gust Speed Precip Events Conditions
12:53 AM 46.0 °F 42.5 °F 44.1 °F 93% 29.79 in 10.0 mi SSE 6.9 mph - N/A   Clear
1:36 AM 44.6 °F 39.7 °F 44.6 °F 100% 29.87 in 8.0 mi SE 9.2 mph - N/A   Scattered Clouds
1:45 AM 46.4 °F 41.9 °F 44.6 °F 93% 29.87 in 7.0 mi South 9.2 mph - N/A   Mostly Cloudy
1:53 AM 46.9 °F - 45.0 °F 93% 29.76 in 6.0 mi SSE 11.5 mph - N/A   Mostly Cloudy
3:53 AM 48.0 °F - 46.9 °F 96% 29.70 in 5.0 mi SSE 13.8 mph - N/A   Overcast
4:53 AM 48.0 °F - 46.9 °F 96% 29.71 in 5.0 mi South 11.5 mph - N/A   Overcast
5:53 AM 48.0 °F - 46.9 °F 96% 29.72 in 4.0 mi SSW 6.9 mph - N/A   Overcast
6:53 AM 48.9 °F - 46.9 °F 93% 29.72 in 6.0 mi Calm Calm - N/A   Mostly Cloudy
7:02 AM 48.2 °F - 46.4 °F 93% 29.82 in 7.0 mi Calm Calm - N/A   Scattered Clouds
7:53 AM 52.0 °F - 46.9 °F 83% 29.73 in 10.0 mi SW 8.1 mph - N/A   Clear
8:53 AM 57.0 °F - 46.9 °F 69% 29.72 in 10.0 mi West 8.1 mph 16.1 mph N/A   Clear
9:53 AM 63.0 °F - 46.9 °F 56% 29.67 in 10.0 mi West 8.1 mph - N/A   Clear
10:53 AM 69.1 °F - 45.0 °F 42% 29.65 in 10.0 mi WNW 5.8 mph - N/A   Clear
11:53 AM 72.0 °F - 42.1 °F 34% 29.62 in 10.0 mi Variable 5.8 mph - N/A   Clear
12:53 PM 77.0 °F - 42.1 °F 29% 29.57 in 10.0 mi SW 11.5 mph - N/A   Clear
1:53 PM 80.1 °F - 37.9 °F 22% 29.52 in 10.0 mi South 16.1 mph 20.7 mph N/A   Clear
2:53 PM 82.9 °F - 36.0 °F 19% 29.46 in 10.0 mi South 15.0 mph 23.0 mph N/A   Clear
3:53 PM 82.9 °F - 30.9 °F 15% 29.42 in 10.0 mi SW 15.0 mph 26.5 mph N/A   Clear
4:53 PM 82.9 °F - 34.0 °F 17% 29.39 in 10.0 mi SW 12.7 mph - N/A   Clear
5:53 PM 79.0 °F - 37.9 °F 23% 29.39 in 10.0 mi South 15.0 mph 23.0 mph N/A   Clear
6:53 PM 75.9 °F - 39.0 °F 26% 29.39 in 10.0 mi South 11.5 mph - N/A   Clear
7:53 PM 71.1 °F - 42.1 °F 35% 29.40 in 10.0 mi South 8.1 mph - N/A   Clear
8:53 PM 68.0 °F - 41.0 °F 37% 29.42 in 10.0 mi WSW 4.6 mph - N/A   Clear
9:53 PM 68.0 °F - 35.1 °F 30% 29.46 in 10.0 mi North 21.9 mph - N/A   Clear
10:53 PM 64.0 °F - 32.0 °F 30% 29.48 in 10.0 mi North 19.6 mph - N/A   Clear
11:53 PM 59.0 °F - 37.9 °F 46% 29.52 in 10.0 mi North 16.1 mph - N/A   Clear